When you browse on this site, cookies collect data to enhance your experience and personalize the content and advertising you see.
Visit our Privacy Policy to learn more. By continuing to use the site, you agree to this use of cookies and data.
  • In Schweiz
  • Länderverzeichnis
  • Für 7 Tage
  • Wassertemperatur
  • Satellitenkarten
  • Wetterkarte
  • Widgets
  • user-avatar
    Anmelden

    Stündliche Wetter Yangliuqing

    Heute, 17 Juli, Mittwoch

    Zeit Temperatur Niederschläge Wind Luftdruck Luftfeuchtigkeit
    00:00 +28°C° 0 mm 1 m/S 754 mmHg 66%
    01:00 +28°C° 0 mm 1 m/S 754 mmHg 67%
    02:00 +26°C° 0 mm 0 m/S 754 mmHg 68%
    03:00 +27°C° 0.2 mm 1 m/S 754 mmHg 71%
    04:00 +27°C° 0.2 mm 2 m/S 754 mmHg 73%
    05:00 +26°C° 0.2 mm 3 m/S 754 mmHg 75%
    06:00 +26°C° 0 mm 3 m/S 754 mmHg 74%
    07:00 +26°C° 0 mm 2 m/S 755 mmHg 73%
    08:00 +27°C° 0 mm 2 m/S 755 mmHg 71%
    09:00 +27°C° 0 mm 1 m/S 755 mmHg 68%
    10:00 +28°C° 0 mm 1 m/S 755 mmHg 64%
    11:00 +29°C° 0 mm 1 m/S 755 mmHg 61%
    12:00 +30°C° 0 mm 2 m/S 755 mmHg 55%
    13:00 +33°C° 0 mm 3 m/S 754 mmHg 49%
    14:00 +34°C° 0 mm 4 m/S 754 mmHg 42%
    15:00 +35°C° 0 mm 4 m/S 753 mmHg 41%
    16:00 +35°C° 0 mm 4 m/S 753 mmHg 40%
    17:00 +35°C° 0 mm 4 m/S 753 mmHg 39%
    18:00 +34°C° 0 mm 4 m/S 753 mmHg 43%
    19:00 +31°C° 0 mm 3 m/S 753 mmHg 47%
    20:00 +30°C° 0 mm 3 m/S 753 mmHg 51%
    21:00 +29°C° 0 mm 2 m/S 753 mmHg 54%
    22:00 +29°C° 0 mm 2 m/S 754 mmHg 56%
    23:00 +29°C° 0 mm 2 m/S 754 mmHg 58%

    Morgen, 18 Juli, Donnerstag

    Zeit Temperatur Niederschläge Wind Luftdruck Luftfeuchtigkeit
    00:00 +28°C° 0 mm 2 m/S 754 mmHg 62%
    01:00 +28°C° 0 mm 1 m/S 754 mmHg 65%
    02:00 +27°C° 0 mm 1 m/S 753 mmHg 68%
    03:00 +27°C° 0 mm 1 m/S 753 mmHg 70%
    04:00 +27°C° 0 mm 1 m/S 753 mmHg 72%
    05:00 +26°C° 0 mm 1 m/S 753 mmHg 74%
    06:00 +28°C° 0 mm 1 m/S 753 mmHg 68%
    07:00 +29°C° 0 mm 1 m/S 754 mmHg 63%
    08:00 +31°C° 0 mm 1 m/S 754 mmHg 57%
    09:00 +33°C° 0 mm 1 m/S 753 mmHg 51%
    10:00 +34°C° 0 mm 1 m/S 753 mmHg 46%
    11:00 +37°C° 0 mm 2 m/S 753 mmHg 40%
    12:00 +37°C° 0 mm 2 m/S 753 mmHg 39%
    13:00 +38°C° 0 mm 3 m/S 752 mmHg 38%
    14:00 +38°C° 0 mm 3 m/S 752 mmHg 37%
    15:00 +38°C° 0 mm 3 m/S 751 mmHg 37%
    16:00 +37°C° 0 mm 4 m/S 751 mmHg 38%
    17:00 +37°C° 0 mm 4 m/S 750 mmHg 38%
    18:00 +36°C° 0 mm 4 m/S 751 mmHg 42%
    19:00 +34°C° 0 mm 4 m/S 751 mmHg 46%
    20:00 +33°C° 0 mm 4 m/S 751 mmHg 50%
    21:00 +32°C° 0 mm 4 m/S 751 mmHg 52%
    22:00 +32°C° 0 mm 4 m/S 752 mmHg 53%
    23:00 +30°C° 0 mm 5 m/S 752 mmHg 55%

    übermorgen, 19 Juli, Freitag

    Zeit Temperatur Niederschläge Wind Luftdruck Luftfeuchtigkeit
    00:00 +30°C° 0 mm 4 m/S 752 mmHg 57%
    01:00 +29°C° 0 mm 4 m/S 752 mmHg 60%
    02:00 +29°C° 0 mm 4 m/S 752 mmHg 63%
    03:00 +29°C° 0 mm 3 m/S 752 mmHg 63%
    04:00 +28°C° 0 mm 2 m/S 752 mmHg 63%
    05:00 +28°C° 0 mm 1 m/S 752 mmHg 64%
    06:00 +29°C° 0 mm 1 m/S 752 mmHg 60%
    07:00 +30°C° 0 mm 2 m/S 752 mmHg 56%
    08:00 +31°C° 0 mm 2 m/S 752 mmHg 53%
    09:00 +34°C° 0 mm 2 m/S 752 mmHg 47%
    10:00 +36°C° 0 mm 3 m/S 752 mmHg 42%
    11:00 +38°C° 0 mm 3 m/S 751 mmHg 37%
    12:00 +38°C° 0 mm 3 m/S 751 mmHg 36%
    13:00 +38°C° 0 mm 3 m/S 750 mmHg 35%
    14:00 +40°C° 0 mm 4 m/S 749 mmHg 34%
    15:00 +38°C° 0 mm 4 m/S 749 mmHg 36%
    16:00 +38°C° 0 mm 4 m/S 749 mmHg 37%
    17:00 +39°C° 0 mm 5 m/S 748 mmHg 38%
    18:00 +36°C° 0 mm 5 m/S 748 mmHg 43%
    19:00 +34°C° 0 mm 5 m/S 749 mmHg 48%
    20:00 +33°C° 0 mm 4 m/S 749 mmHg 53%
    21:00 +32°C° 0 mm 4 m/S 749 mmHg 54%
    22:00 +32°C° 0 mm 4 m/S 749 mmHg 54%
    23:00 +30°C° 0 mm 4 m/S 749 mmHg 55%

    20 Juli, Samstag

    Zeit Temperatur Niederschläge Wind Luftdruck Luftfeuchtigkeit
    00:00 +30°C° 0 mm 4 m/S 749 mmHg 56%
    01:00 +30°C° 0 mm 3 m/S 749 mmHg 58%
    02:00 +29°C° 0 mm 2 m/S 749 mmHg 59%
    03:00 +29°C° 0 mm 2 m/S 749 mmHg 60%
    04:00 +29°C° 0 mm 2 m/S 749 mmHg 61%
    05:00 +29°C° 0 mm 2 m/S 749 mmHg 62%
    06:00 +29°C° 0.1 mm 2 m/S 749 mmHg 64%
    07:00 +29°C° 0.1 mm 2 m/S 750 mmHg 65%
    08:00 +29°C° 0.1 mm 2 m/S 750 mmHg 66%
    09:00 +29°C° 0.2 mm 2 m/S 750 mmHg 69%
    10:00 +28°C° 0.2 mm 2 m/S 750 mmHg 72%
    11:00 +28°C° 0.2 mm 1 m/S 750 mmHg 74%
    12:00 +28°C° 0.1 mm 2 m/S 749 mmHg 74%
    13:00 +29°C° 0.1 mm 3 m/S 749 mmHg 73%
    14:00 +29°C° 0.1 mm 4 m/S 749 mmHg 72%
    15:00 +29°C° 0 mm 4 m/S 749 mmHg 69%
    16:00 +30°C° 0 mm 3 m/S 748 mmHg 67%
    17:00 +31°C° 0 mm 2 m/S 748 mmHg 64%
    18:00 +30°C° 0 mm 2 m/S 748 mmHg 67%
    19:00 +29°C° 0 mm 2 m/S 748 mmHg 70%
    20:00 +28°C° 0 mm 3 m/S 749 mmHg 73%
    21:00 +28°C° 0 mm 3 m/S 749 mmHg 77%
    22:00 +27°C° 0 mm 3 m/S 749 mmHg 81%
    23:00 +26°C° 0 mm 2 m/S 749 mmHg 84%

    21 Juli, Sonntag

    Zeit Temperatur Niederschläge Wind Luftdruck Luftfeuchtigkeit
    00:00 +26°C° 0 mm 2 m/S 749 mmHg 85%
    01:00 +26°C° 0 mm 2 m/S 749 mmHg 86%
    02:00 +25°C° 0 mm 2 m/S 749 mmHg 87%
    03:00 +25°C° 0 mm 1 m/S 749 mmHg 88%
    04:00 +25°C° 0 mm 1 m/S 749 mmHg 89%
    05:00 +25°C° 0 mm 1 m/S 749 mmHg 90%
    06:00 +26°C° 0 mm 1 m/S 749 mmHg 83%
    07:00 +28°C° 0 mm 2 m/S 749 mmHg 75%
    08:00 +30°C° 0 mm 2 m/S 750 mmHg 67%
    09:00 +32°C° 0 mm 2 m/S 750 mmHg 58%
    10:00 +35°C° 0 mm 3 m/S 749 mmHg 50%
    11:00 +37°C° 0 mm 3 m/S 749 mmHg 41%
    12:00 +38°C° 0 mm 3 m/S 749 mmHg 37%
    13:00 +40°C° 0 mm 3 m/S 748 mmHg 33%
    14:00 +42°C° 0 mm 3 m/S 748 mmHg 28%
    15:00 +42°C° 0 mm 3 m/S 747 mmHg 28%
    16:00 +42°C° 0 mm 3 m/S 747 mmHg 28%
    17:00 +42°C° 0 mm 4 m/S 747 mmHg 28%
    18:00 +40°C° 0 mm 4 m/S 747 mmHg 36%
    19:00 +36°C° 0 mm 4 m/S 747 mmHg 44%
    20:00 +34°C° 0 mm 4 m/S 748 mmHg 52%
    21:00 +33°C° 0 mm 4 m/S 748 mmHg 56%
    22:00 +33°C° 0 mm 3 m/S 748 mmHg 59%
    23:00 +31°C° 0 mm 3 m/S 749 mmHg 62%

    22 Juli, Montag

    Zeit Temperatur Niederschläge Wind Luftdruck Luftfeuchtigkeit
    00:00 +31°C° 0 mm 2 m/S 749 mmHg 63%
    01:00 +30°C° 0 mm 2 m/S 749 mmHg 64%
    02:00 +30°C° 0 mm 2 m/S 749 mmHg 65%
    03:00 +30°C° 0 mm 2 m/S 749 mmHg 66%
    04:00 +29°C° 0 mm 2 m/S 749 mmHg 67%
    05:00 +29°C° 0 mm 1 m/S 749 mmHg 69%
    06:00 +31°C° 0 mm 2 m/S 749 mmHg 63%
    07:00 +32°C° 0 mm 2 m/S 749 mmHg 58%
    08:00 +35°C° 0 mm 2 m/S 749 mmHg 53%
    09:00 +36°C° 0 mm 2 m/S 749 mmHg 48%
    10:00 +38°C° 0 mm 3 m/S 749 mmHg 44%
    11:00 +39°C° 0 mm 3 m/S 749 mmHg 39%
    12:00 +40°C° 0 mm 3 m/S 749 mmHg 37%
    13:00 +42°C° 0 mm 3 m/S 748 mmHg 34%
    14:00 +43°C° 0 mm 4 m/S 748 mmHg 32%
    15:00 +43°C° 0 mm 4 m/S 747 mmHg 31%
    16:00 +43°C° 0 mm 4 m/S 747 mmHg 30%
    17:00 +43°C° 0 mm 4 m/S 746 mmHg 30%
    18:00 +41°C° 0 mm 4 m/S 747 mmHg 37%
    19:00 +38°C° 0 mm 4 m/S 747 mmHg 44%
    20:00 +36°C° 0 mm 4 m/S 747 mmHg 51%
    21:00 +34°C° 1.3 mm 4 m/S 748 mmHg 58%
    22:00 +31°C° 1.3 mm 3 m/S 749 mmHg 65%
    23:00 +30°C° 1.3 mm 2 m/S 749 mmHg 73%
    Mehr zeigen